Location: Mt. Bigelow
(32.4165°N, 110.7345°W)
Time: 13:20:44
(UTC-07:00)

ISS - Visible Passes

Search period start: 16 December 2018 00:00
Search period end: 26 December 2018 00:00
Orbit: 401 x 408 km, 51.6° (Epoch: 17 December)

Date Brightness Start Highest point End Pass type
(mag) Time Alt. Az. Time Alt. Az. Time Alt. Az.
20 Dec -0.7 06:51:44 10° S 06:54:14 20° SE 06:56:43 10° ENE visible
22 Dec -3.3 06:42:49 10° SW 06:46:01 63° SE 06:49:16 10° NE visible
23 Dec -1.6 05:51:04 10° S 05:53:52 26° SE 05:56:41 10° ENE visible
24 Dec -0.6 05:01:04 12° SE 05:01:47 12° SE 05:03:14 10° E visible
24 Dec -3.4 06:34:49 10° WSW 06:37:56 41° NW 06:41:04 10° NNE visible
25 Dec -3.9 05:45:28 79° SSW 05:45:38 86° SE 05:48:54 10° NE visible
